Time,TemperatureF,DewpointF,PressureIn,WindDirection,WindDirectionDegrees,WindSpeedMPH,WindSpeedGustMPH,Humidity,HourlyPrecipIn,Conditions,Clouds,dailyrainin,SoftwareType,DateUTC
2013-05-29 00:03:00,72.0,67.0,29.85,SSW,199,3.0,11.0,83,0.00,,,0.22,,2013-05-29 04:03:00,
2013-05-29 00:13:00,72.0,67.0,29.86,SSW,192,4.0,9.0,83,0.00,,,0.22,,2013-05-29 04:13:00,
2013-05-29 00:23:00,72.0,67.0,29.86,SSW,192,4.0,9.0,83,0.00,,,0.22,,2013-05-29 04:23:00,
2013-05-29 00:33:00,73.0,68.0,29.87,SW,216,1.0,7.0,83,0.00,,,0.19,,2013-05-29 04:33:00,
2013-05-29 00:42:00,73.0,68.0,29.87,SW,216,1.0,7.0,83,0.00,,,0.19,,2013-05-29 04:42:00,
2013-05-29 00:52:00,73.0,68.0,29.88,SW,217,3.0,11.0,83,0.00,,,0.19,,2013-05-29 04:52:00,
2013-05-29 01:03:00,73.0,67.0,29.88,SSW,206,3.0,9.0,82,0.00,,,0.19,,2013-05-29 05:03:00,
2013-05-29 01:12:00,73.0,67.0,29.88,SSW,206,3.0,9.0,82,0.00,,,0.19,,2013-05-29 05:12:00,
2013-05-29 01:22:00,73.0,67.0,29.88,SW,215,3.0,15.0,81,0.00,,,0.19,,2013-05-29 05:22:00,
2013-05-29 01:33:00,72.0,67.0,29.91,WSW,249,3.0,9.0,85,0.02,,,0.18,,2013-05-29 05:33:00,
2013-05-29 01:42:00,72.0,67.0,29.91,WSW,249,3.0,9.0,85,0.02,,,0.18,,2013-05-29 05:42:00,
2013-05-29 01:52:00,69.0,65.0,29.89,WSW,256,2.0,12.0,88,0.08,,,0.24,,2013-05-29 05:52:00,
2013-05-29 02:02:00,66.0,64.0,29.89,WSW,258,0.0,5.0,92,0.09,,,0.25,,2013-05-29 06:02:00,
2013-05-29 02:12:00,66.0,64.0,29.89,WSW,258,0.0,5.0,92,0.09,,,0.25,,2013-05-29 06:12:00,
2013-05-29 02:22:00,66.0,64.0,29.87,SW,219,0.0,6.0,94,0.09,,,0.25,,2013-05-29 06:22:00,
2013-05-29 02:32:00,65.0,63.0,29.88,SW,219,0.0,3.0,94,0.07,,,0.25,,2013-05-29 06:32:00,
2013-05-29 02:42:00,65.0,63.0,29.88,SW,219,0.0,3.0,94,0.07,,,0.25,,2013-05-29 06:42:00,
2013-05-29 02:52:00,64.0,63.0,29.88,SW,219,0.0,2.0,95,0.01,,,0.25,,2013-05-29 06:52:00,
2013-05-29 03:01:00,64.0,63.0,29.88,SW,219,0.0,1.0,95,0.00,,,0.25,,2013-05-29 07:01:00,
2013-05-29 03:11:00,64.0,63.0,29.88,SW,219,0.0,1.0,95,0.00,,,0.25,,2013-05-29 07:11:00,
2013-05-29 03:22:00,64.0,63.0,29.88,SW,219,0.0,3.0,96,0.00,,,0.25,,2013-05-29 07:22:00,
2013-05-29 03:34:00,64.0,63.0,29.89,SW,219,0.0,0.0,96,0.00,,,0.25,,2013-05-29 07:34:00,
2013-05-29 03:42:00,64.0,63.0,29.89,SW,219,0.0,0.0,96,0.00,,,0.25,,2013-05-29 07:42:00,
2013-05-29 03:52:00,64.0,63.0,29.88,SW,219,0.0,0.0,96,0.00,,,0.25,,2013-05-29 07:52:00,
2013-05-29 04:02:00,64.0,63.0,29.88,SSW,213,0.0,6.0,97,0.00,,,0.25,,2013-05-29 08:02:00,
2013-05-29 04:11:00,64.0,63.0,29.88,SSW,213,0.0,6.0,97,0.00,,,0.25,,2013-05-29 08:11:00,
2013-05-29 04:22:00,65.0,64.0,29.88,SSW,207,0.0,10.0,98,0.00,,,0.25,,2013-05-29 08:22:00,
2013-05-29 04:32:00,65.0,64.0,29.89,SE,143,1.0,6.0,98,0.00,,,0.25,,2013-05-29 08:32:00,
2013-05-29 04:42:00,65.0,64.0,29.89,SE,143,1.0,6.0,98,0.00,,,0.25,,2013-05-29 08:42:00,
2013-05-29 04:52:00,66.0,65.0,29.89,SSW,211,1.0,6.0,98,0.00,,,0.25,,2013-05-29 08:52:00,
2013-05-29 05:01:00,66.0,65.0,29.89,SW,232,1.0,8.0,97,0.00,,,0.25,,2013-05-29 09:01:00,
2013-05-29 05:11:00,66.0,65.0,29.89,SW,232,1.0,8.0,97,0.00,,,0.25,,2013-05-29 09:11:00,
2013-05-29 05:21:00,66.0,65.0,29.90,SW,219,2.0,9.0,97,0.00,,,0.25,,2013-05-29 09:21:00,
2013-05-29 05:33:00,66.0,65.0,29.91,WSW,252,2.0,6.0,97,0.00,,,0.24,,2013-05-29 09:33:00,
2013-05-29 05:42:00,66.0,65.0,29.91,WSW,252,2.0,6.0,97,0.00,,,0.24,,2013-05-29 09:42:00,
2013-05-29 05:52:00,66.0,65.0,29.90,SW,215,3.0,9.0,96,0.00,,,0.24,,2013-05-29 09:52:00,
2013-05-29 06:03:00,66.0,65.0,29.90,South,179,1.0,6.0,95,0.00,,,0.24,,2013-05-29 10:03:00,
2013-05-29 06:12:00,66.0,65.0,29.90,South,179,1.0,6.0,95,0.00,,,0.24,,2013-05-29 10:12:00,
2013-05-29 06:22:00,66.0,64.0,29.90,WSW,240,1.0,12.0,94,0.00,,,0.24,,2013-05-29 10:22:00,
2013-05-29 06:33:00,67.0,65.0,29.91,South,184,1.0,7.0,92,0.00,,,0.20,,2013-05-29 10:33:00,
2013-05-29 06:42:00,67.0,65.0,29.91,South,184,1.0,7.0,92,0.00,,,0.20,,2013-05-29 10:42:00,
2013-05-29 06:52:00,67.0,64.0,29.91,South,188,2.0,7.0,90,0.00,,,0.20,,2013-05-29 10:52:00,
2013-05-29 07:02:00,68.0,64.0,29.91,SSE,147,2.0,10.0,88,0.00,,,0.20,,2013-05-29 11:02:00,
2013-05-29 07:12:00,68.0,64.0,29.91,SSE,147,2.0,10.0,88,0.00,,,0.20,,2013-05-29 11:12:00,
2013-05-29 07:22:00,68.0,63.0,29.92,SSW,209,3.0,10.0,85,0.00,,,0.20,,2013-05-29 11:22:00,
2013-05-29 07:32:00,68.0,64.0,29.92,SW,228,1.0,8.0,86,0.00,,,0.09,,2013-05-29 11:32:00,
2013-05-29 07:42:00,68.0,64.0,29.92,SW,228,1.0,8.0,86,0.00,,,0.09,,2013-05-29 11:42:00,
2013-05-29 07:52:00,68.0,63.0,29.91,South,184,1.0,7.0,84,0.00,,,0.09,,2013-05-29 11:52:00,
2013-05-29 08:01:00,69.0,64.0,29.92,SSW,211,4.0,9.0,84,0.00,,,0.09,,2013-05-29 12:01:00,
2013-05-29 08:11:00,69.0,64.0,29.92,SSW,211,4.0,9.0,84,0.00,,,0.09,,2013-05-29 12:11:00,
2013-05-29 08:22:00,69.0,63.0,29.93,WSW,244,3.0,12.0,82,0.00,,,0.09,,2013-05-29 12:22:00,
2013-05-29 08:32:00,70.0,64.0,29.93,SW,215,3.0,12.0,82,0.00,,,0.09,,2013-05-29 12:32:00,
2013-05-29 08:42:00,70.0,64.0,29.93,SW,215,3.0,12.0,82,0.00,,,0.09,,2013-05-29 12:42:00,
2013-05-29 08:52:00,71.0,63.0,29.93,SW,232,4.0,17.0,77,0.00,,,0.09,,2013-05-29 12:52:00,
2013-05-29 09:02:00,71.0,64.0,29.94,SSW,195,4.0,11.0,79,0.00,,,0.09,,2013-05-29 13:02:00,
2013-05-29 09:11:00,71.0,64.0,29.94,SSW,195,4.0,11.0,79,0.00,,,0.09,,2013-05-29 13:11:00,
2013-05-29 09:22:00,72.0,65.0,29.94,SW,228,5.0,11.0,78,0.00,,,0.09,,2013-05-29 13:22:00,
2013-05-29 09:32:00,72.0,65.0,29.95,SW,228,3.0,11.0,79,0.00,,,0.09,,2013-05-29 13:32:00,
2013-05-29 09:42:00,72.0,65.0,29.95,SW,228,3.0,11.0,79,0.00,,,0.09,,2013-05-29 13:42:00,
2013-05-29 09:53:00,72.0,64.0,29.95,SSW,213,5.0,12.0,77,0.00,,,0.09,,2013-05-29 13:53:00,
2013-05-29 10:02:00,72.0,64.0,29.94,SW,218,5.0,15.0,76,0.00,,,0.09,,2013-05-29 14:02:00,
2013-05-29 10:11:00,72.0,64.0,29.94,SW,218,5.0,15.0,76,0.00,,,0.09,,2013-05-29 14:11:00,
2013-05-29 10:21:00,73.0,64.0,29.93,SSW,208,4.0,13.0,74,0.00,,,0.09,,2013-05-29 14:21:00,
2013-05-29 10:32:00,73.0,65.0,29.94,SSW,208,3.0,12.0,76,0.00,,,0.09,,2013-05-29 14:32:00,
2013-05-29 10:42:00,73.0,65.0,29.94,SSW,208,3.0,12.0,76,0.00,,,0.09,,2013-05-29 14:42:00,
2013-05-29 10:52:00,73.0,65.0,29.94,South,178,3.0,14.0,75,0.00,,,0.09,,2013-05-29 14:52:00,
2013-05-29 11:01:00,73.0,65.0,29.94,WSW,246,4.0,13.0,76,0.00,,,0.09,,2013-05-29 15:01:00,
2013-05-29 11:11:00,73.0,65.0,29.94,WSW,246,4.0,13.0,76,0.00,,,0.09,,2013-05-29 15:11:00,
2013-05-29 11:21:00,73.0,65.0,29.95,SSW,213,5.0,14.0,76,0.00,,,0.09,,2013-05-29 15:21:00,
2013-05-29 11:33:00,73.0,66.0,29.95,WSW,239,3.0,9.0,78,0.00,,,0.09,,2013-05-29 15:33:00,
2013-05-29 11:42:00,73.0,66.0,29.95,WSW,239,3.0,9.0,78,0.00,,,0.09,,2013-05-29 15:42:00,
2013-05-29 11:53:00,73.0,65.0,29.95,South,182,6.0,12.0,75,0.00,,,0.09,,2013-05-29 15:53:00,
2013-05-29 12:03:00,74.0,67.0,29.96,SW,225,3.0,12.0,79,0.00,,,0.09,,2013-05-29 16:03:00,
2013-05-29 12:13:00,74.0,67.0,29.96,SW,225,3.0,12.0,79,0.00,,,0.09,,2013-05-29 16:13:00,
2013-05-29 12:22:00,74.0,67.0,29.97,SSE,158,3.0,10.0,79,0.00,,,0.09,,2013-05-29 16:22:00,
2013-05-29 12:33:00,75.0,66.0,29.98,SW,229,3.0,12.0,74,0.00,,,0.09,,2013-05-29 16:33:00,
2013-05-29 12:42:00,75.0,66.0,29.98,SW,229,3.0,12.0,74,0.00,,,0.09,,2013-05-29 16:42:00,
2013-05-29 12:52:00,76.0,67.0,29.98,WSW,250,2.0,10.0,74,0.00,,,0.09,,2013-05-29 16:52:00,
2013-05-29 13:02:00,78.0,67.0,29.98,WSW,243,4.0,13.0,69,0.00,,,0.09,,2013-05-29 17:02:00,
2013-05-29 13:12:00,78.0,67.0,29.98,WSW,243,4.0,13.0,69,0.00,,,0.09,,2013-05-29 17:12:00,
2013-05-29 13:22:00,80.0,69.0,29.98,WSW,240,5.0,14.0,69,0.00,,,0.09,,2013-05-29 17:22:00,
2013-05-29 13:32:00,80.0,68.0,29.98,SSW,205,5.0,14.0,68,0.00,,,0.09,,2013-05-29 17:32:00,
2013-05-29 13:42:00,80.0,68.0,29.98,SSW,205,5.0,14.0,68,0.00,,,0.09,,2013-05-29 17:42:00,
2013-05-29 13:52:00,80.0,69.0,29.98,SW,227,4.0,12.0,70,0.00,,,0.09,,2013-05-29 17:52:00,
2013-05-29 14:01:00,80.0,69.0,29.98,WSW,242,5.0,16.0,69,0.00,,,0.09,,2013-05-29 18:01:00,
2013-05-29 14:13:00,80.0,69.0,29.98,WSW,242,5.0,16.0,69,0.00,,,0.09,,2013-05-29 18:13:00,
2013-05-29 14:22:00,79.0,68.0,29.98,WSW,240,4.0,11.0,70,0.00,,,0.09,,2013-05-29 18:22:00,
2013-05-29 14:32:00,80.0,69.0,29.98,West,267,1.0,11.0,69,0.00,,,0.09,,2013-05-29 18:32:00,
2013-05-29 14:42:00,80.0,69.0,29.98,West,267,1.0,11.0,69,0.00,,,0.09,,2013-05-29 18:42:00,
2013-05-29 14:51:00,81.0,70.0,29.97,WSW,247,0.0,9.0,69,0.00,,,0.09,,2013-05-29 18:51:00,
2013-05-29 15:02:00,82.0,71.0,29.97,WSW,245,2.0,7.0,69,0.00,,,0.09,,2013-05-29 19:02:00,
2013-05-29 15:11:00,82.0,70.0,29.96,SSW,206,3.0,9.0,67,0.00,,,0.09,,2013-05-29 19:11:00,
2013-05-29 15:22:00,82.0,70.0,29.96,SSW,206,3.0,9.0,67,0.00,,,0.09,,2013-05-29 19:22:00,
2013-05-29 15:32:00,82.0,69.0,29.96,SW,229,5.0,12.0,66,0.00,,,0.09,,2013-05-29 19:32:00,
2013-05-29 15:44:00,82.0,69.0,29.96,SW,229,5.0,12.0,66,0.00,,,0.09,,2013-05-29 19:44:00,
2013-05-29 15:53:00,82.0,70.0,29.96,SSW,204,3.0,12.0,67,0.00,,,0.09,,2013-05-29 19:53:00,
2013-05-29 16:03:00,82.0,69.0,29.96,West,265,4.0,15.0,65,0.00,,,0.09,,2013-05-29 20:03:00,
2013-05-29 16:11:00,82.0,69.0,29.96,West,265,4.0,15.0,65,0.00,,,0.09,,2013-05-29 20:11:00,
2013-05-29 16:23:00,83.0,70.0,29.96,SSW,200,1.0,15.0,64,0.00,,,0.09,,2013-05-29 20:23:00,
2013-05-29 16:33:00,83.0,69.0,29.96,SW,233,2.0,16.0,62,0.00,,,0.09,,2013-05-29 20:33:00,
2013-05-29 16:42:00,83.0,69.0,29.96,SW,233,2.0,16.0,62,0.00,,,0.09,,2013-05-29 20:42:00,
2013-05-29 16:52:00,83.0,68.0,29.96,SSW,206,2.0,10.0,60,0.00,,,0.09,,2013-05-29 20:52:00,
2013-05-29 17:02:00,83.0,67.0,29.95,SW,232,4.0,10.0,58,0.00,,,0.09,,2013-05-29 21:02:00,
2013-05-29 17:12:00,83.0,67.0,29.95,SW,232,4.0,10.0,58,0.00,,,0.09,,2013-05-29 21:12:00,
2013-05-29 17:22:00,83.0,67.0,29.95,SW,216,3.0,12.0,58,0.00,,,0.09,,2013-05-29 21:22:00,
2013-05-29 17:33:00,82.0,68.0,29.95,SW,219,2.0,12.0,62,0.00,,,0.09,,2013-05-29 21:33:00,
2013-05-29 17:43:00,82.0,68.0,29.95,SW,219,2.0,12.0,62,0.00,,,0.09,,2013-05-29 21:43:00,
2013-05-29 17:53:00,82.0,68.0,29.95,SSW,213,3.0,10.0,62,0.00,,,0.09,,2013-05-29 21:53:00,
2013-05-29 18:03:00,82.0,67.0,29.95,SW,227,2.0,12.0,60,0.00,,,0.09,,2013-05-29 22:03:00,
2013-05-29 18:12:00,82.0,67.0,29.95,SW,227,2.0,12.0,60,0.00,,,0.09,,2013-05-29 22:12:00,
2013-05-29 18:23:00,82.0,68.0,29.95,West,277,2.0,10.0,62,0.00,,,0.09,,2013-05-29 22:23:00,
2013-05-29 18:34:00,82.0,66.0,29.95,SSW,200,2.0,17.0,58,0.00,,,0.09,,2013-05-29 22:34:00,
2013-05-29 18:42:00,82.0,66.0,29.95,SSW,200,2.0,17.0,58,0.00,,,0.09,,2013-05-29 22:42:00,
2013-05-29 18:53:00,82.0,67.0,29.95,South,190,0.0,8.0,60,0.00,,,0.09,,2013-05-29 22:53:00,
2013-05-29 19:02:00,82.0,67.0,29.95,SSW,211,1.0,9.0,61,0.00,,,0.09,,2013-05-29 23:02:00,
2013-05-29 19:12:00,82.0,67.0,29.95,SSW,211,1.0,9.0,61,0.00,,,0.09,,2013-05-29 23:12:00,
2013-05-29 19:22:00,81.0,67.0,29.95,SW,222,0.0,9.0,62,0.00,,,0.09,,2013-05-29 23:22:00,
2013-05-29 19:33:00,80.0,65.0,29.95,South,188,0.0,10.0,60,0.00,,,0.09,,2013-05-29 23:33:00,
2013-05-29 19:42:00,80.0,65.0,29.95,SSW,199,0.0,6.0,60,0.00,,,0.09,,2013-05-29 23:42:00,
2013-05-29 19:53:00,80.0,65.0,29.95,SSW,199,0.0,6.0,60,0.00,,,0.09,,2013-05-29 23:53:00,
2013-05-29 20:02:00,79.0,65.0,29.95,SW,225,1.0,6.0,62,0.00,,,0.09,,2013-05-30 00:02:00,
2013-05-29 20:12:00,79.0,65.0,29.95,SW,225,1.0,6.0,62,0.00,,,0.09,,2013-05-30 00:12:00,
2013-05-29 20:22:00,79.0,65.0,29.94,SW,235,0.0,7.0,63,0.00,,,0.09,,2013-05-30 00:22:00,
2013-05-29 20:32:00,79.0,66.0,29.94,WSW,245,1.0,7.0,64,0.00,,,0.09,,2013-05-30 00:32:00,
2013-05-29 20:42:00,79.0,66.0,29.94,WSW,245,1.0,7.0,64,0.00,,,0.09,,2013-05-30 00:42:00,
2013-05-29 20:52:00,78.0,65.0,29.94,WSW,243,0.0,1.0,64,0.00,,,0.09,,2013-05-30 00:52:00,
2013-05-29 21:02:00,77.0,65.0,29.95,SSW,198,0.0,3.0,66,0.00,,,0.09,,2013-05-30 01:02:00,
2013-05-29 21:11:00,77.0,65.0,29.95,SSW,198,0.0,3.0,66,0.00,,,0.09,,2013-05-30 01:11:00,
2013-05-29 21:22:00,76.0,65.0,29.95,SSW,198,0.0,0.0,68,0.00,,,0.09,,2013-05-30 01:22:00,
2013-05-29 21:32:00,75.0,65.0,29.96,SSW,198,0.0,0.0,70,0.00,,,0.09,,2013-05-30 01:32:00,
2013-05-29 21:42:00,75.0,65.0,29.96,SSW,198,0.0,0.0,70,0.00,,,0.09,,2013-05-30 01:42:00,
2013-05-29 21:52:00,74.0,66.0,29.95,SSW,198,0.0,0.0,75,0.00,,,0.09,,2013-05-30 01:52:00,
2013-05-29 22:02:00,73.0,66.0,29.96,SSW,200,0.0,1.0,78,0.00,,,0.09,,2013-05-30 02:02:00,
2013-05-29 22:11:00,73.0,66.0,29.96,SSW,200,0.0,1.0,78,0.00,,,0.09,,2013-05-30 02:11:00,
2013-05-29 22:21:00,72.0,66.0,29.96,SSW,200,0.0,0.0,81,0.00,,,0.09,,2013-05-30 02:21:00,
2013-05-29 22:32:00,71.0,66.0,29.97,SSW,200,0.0,1.0,83,0.00,,,0.09,,2013-05-30 02:32:00,
2013-05-29 22:42:00,71.0,66.0,29.97,SSW,200,0.0,1.0,83,0.00,,,0.09,,2013-05-30 02:42:00,
2013-05-29 22:52:00,71.0,66.0,29.97,SSW,200,0.0,1.0,83,0.00,,,0.09,,2013-05-30 02:52:00,
2013-05-29 23:02:00,69.0,64.0,29.98,SSW,200,0.0,0.0,84,0.00,,,0.09,,2013-05-30 03:02:00,
2013-05-29 23:11:00,69.0,65.0,29.98,SSW,200,0.0,0.0,86,0.00,,,0.09,,2013-05-30 03:11:00,
2013-05-29 23:21:00,69.0,65.0,29.98,SSW,200,0.0,0.0,86,0.00,,,0.09,,2013-05-30 03:21:00,
2013-05-29 23:33:00,68.0,64.0,29.98,SSW,200,0.0,0.0,88,0.00,,,0.09,,2013-05-30 03:33:00,
2013-05-29 23:43:00,68.0,64.0,29.98,SSW,200,0.0,0.0,88,0.00,,,0.09,,2013-05-30 03:43:00,
2013-05-29 23:53:00,67.0,64.0,29.98,SSW,200,0.0,0.0,90,0.00,,,0.09,,2013-05-30 03:53:00,